Location: DARK SKY Beskydy - Park tmavé oblohy, www.darkskybeskydy.cz
(49.4926°N, 18.5016°E)
Time: 01:30:55
(UTC+02:00)

Vanguard 1 - Pass Details

Date: 01 March 2024
Orbit: 653 x 3825 km, 34.2° (Epoch: 22 April)

Event Time Altitude Azimuth Distance (km) Brightness Sun altitude
Rises 22:05:38 0° 266° (W) 5,936 14.4 -41.5°
Reaches altitude 10° 22:09:14 10° 260° (W) 5,296 14.0 -41.9°
Enters shadow 22:22:35 43° 209° (SSW) 4,241 12.9 -43.1°
Maximum altitude 22:24:50 44° 196° (SSW) 4,311 - -43.3°
Drops below altitude 10° 22:45:39 10° 135° (SE) 6,897 - -45.0°
Sets 22:51:17 0° 129° (SE) 7,804 - -45.4°
